Changshagaoxin (43669 NORAD) Tracking and Keplerian Element Data

This shows tracking and keplerian element data for the satellite.

Feedback or suggestion? Click here.




ElementValue
Catalog43669
NameChangshagaoxin
Epoch Orbit3965
Epoch Day198.8763694
Epoch Year2019
RAAN222.3732
Inclination97.5048
Eccentricity0.0012701
Argument of Perigee81.2999
Mean Anonmoly278.9672
Mean Motion15.16816509
Decay Rate4.51E-06
L11 43669U 18083H 19198.87636940 .00000451 00000-0 26342-4 0 9990
L22 43669 97.5048 222.3732 0012701 81.2999 278.9672 15.16816509 39659

Live tracking and technical data element details for Changshagaoxin (NORAD 43669). Changshagaoxin can be tracked NOW for your location showing map with azimuth and elevation plus other details from your city location.

Track the satellite on the map from your city or location and see movement details for azimuth, elevation, latitude, longitude, range, height, and movement on the map or in text.







IsCatalogInMostPopularTable: catalog: 43669, numindb: 143
Update: records affected: 1



GetName: 43669 Changshagaoxin

Hit Count: updated at: Sat, 20 Jul 2019 22:37:57 GMT